Back to catalog

CZ-6A DEB

AlivePO
NORAD 54415·DEBRIS·🇨🇳 China

Launched Nov 11, 2022 from Taiyuan Satellite Launch Center

Loading…

Next Passes (next 24 hours)

TLE

FreshSource: Space-Track

Epoch: Sep 14, 2026, 05:37 UTC

1 54415U 22151EP  26257.23424059  .00001283  00000-0  10426-2 0  9990
2 54415  99.0067 177.7867 0352054 327.9261  30.0887 13.66501225190999

Track CZ-6A DEB in real time with AllMySat

Download on the App Store